User: anonymous   Login
Location: Cornospital
(48.0620°N, 3.3837°W)
Time: 18:27:54
(UTC+00:00)
Language:

GENESIS II - Orbit

View from above orbital plane
View from above orbital plane
View from above satellite
View from above satellite

Ground track
Ground track

The orbit data is extracted from the following two-line orbital elements,

1 31789U 07028A   21264.31904308  .00000584  00000-0  38653-4 0  9994
2 31789  64.4925 276.0136 0014490  11.4725 348.6725 15.17914489785030
Epoch (UTC): 21 September 2021 07:39:25
Eccentricity: 0.0014490
inclination: 64.4925°
perigee height: 502 km
apogee height: 522 km
right ascension of ascending node: 276.0136°
argument of perigee: 11.4725°
revolutions per day: 15.17914489
mean anomaly at epoch: 348.6725°
orbit number at epoch: 78503

The dashed part of the orbit path shows where the satellite is in the earth's shadow,  

DLR